FREGAT DEB, 45971

Orbit data source: Space-Track

FREGAT DEB, 45971 is space debris in LEO originally from a launch on Mon, 18 Jul 2011 UTC launched from the Tyuratam Missile And Space Complex (TTMTR). Debris objects in space refer to the collection of defunct objects orbiting the Earth. Examples of debris include non-operational satellites, rocket bodies, and fragments generated from explosions, collisions, or faulty payload assembly.

Loading next visibility...
Identifier
45971, 2011-037GC
Orbit
LEO
Country
Flag of CISCIS
Related business
Manufacturer
Lavochkin
Mission
Spacecraft
Bus & Motor
Unknown
Mass
Unknown
Launch date (UTC)
2011-07-18 (14 years ago)
Launch vehicle
Unknown
Launch site
Tyuratam Missile And Space Complex (TTMTR)
Object type
Payload
Rocket body
Debris
Shape & HBR
Unknown shape, 0.1 m
Radar Cross Section
Small (<0.1 m²)

Expand to show TLE details & history
Last TLE update: 2 days ago

TLE from 2 days ago
0 FREGAT DEB
1 45971U 11037GC  25310.43238273  .00025428  00000-0  24401-2 0  9995
2 45971  51.4634  41.5814 1169424 334.9731  19.8545 12.94887591239720
Epoch: 2025-11-06T10:22Z
TLE epoch observation values (Epoch: 2025-11-06T10:22:37.867Z)
Latitude
-0.00005°
Longitude
-159.9672°
Altitude
454.732 km
Speed
8.043 km/s
True Right ascension
02h 46m 19s
True Declination
0° 00' 00"
Sunlit
Object was in full shadow at epoch
Visualization orbit readout
Latitude
Unknown
Longitude
Unknown
Altitude
Unknown
Speed
Unknown
Apparent Right ascension
Unknown
Apparent Declination
Unknown
Sunlit
N/A
Visualization observer readout
Local Sidereal Time
06:44:32
Azimuth
Unknown
Elevation
Unknown
Doppler factor
Unknown
Orbital elements
Apogee altitude
2,178.548 km
Perigee altitude
386.8 km
Semi-major axis
7,660.811 km
Eccentricity
0.11694
Inclination
51.4634°
RAAN
41.5814°
Arg. of periapsis
334.9731°
True anomaly
25.11825°
Mean anomaly
19.8545°
Eccentric anomaly
22.40873°
Mean motion
3.23691 °/min
Orbital period
111.22 mins
BSTAR
0.0024401
Loading maneuver chart data...
Computing Atmospheric mass density...
Loading historical data...
Loading historical data...
Loading historical data...
Loading historical data...
Loading historical data...
Loading historical data...
Loading historical data...

Documentation

Showing up to 5 results
|